Regional Weather Roundup
Issued by NWS Sterling, VA

Home | Current Version | Previous Version | Graphics & Text | Print | Product List | Glossary On
Versions: 1 2 3 4 5 6 7 8 9 10 11 12 13 14 15 16 17 18 19 20 21 22 23 24 25 26 27 28 29 30 31 32 33 34 35 36 37 38 39 40 41 42 43 44 45 46 47 48 49 50
000
ASUS41 KLWX 222010
RWRLWX

REGIONAL WEATHER ROUNDUP
NATIONAL WEATHER SERVICE BALTIMORE MD/WASHINGTON DC
400 PM EDT FRI AUG 22 2014

Note: "FAIR" indicates few or no clouds below 12,000 feet
with no significant weather and/or obstructions to visibility.
 TC=TEMPERATURE CELSIUS

 * =Non NWS site. Station does not report precipitation (e.g. rain,
    snow, etc.), thunder, or fog.

DCZ001-MDZ009-015-VAZ040>042-051-053>054-222100-
WASHINGTON METRO
  /KDAA//-FT BELVOIR

CITY           SKY/WX    TMP DP  RH WIND       PRES   REMARKS
WASHINGTON NAT CLOUDY    82  69  64 CALM      29.96F
DULLES         PTSUNNY   78  70  76 SW3       29.97F
ANDREWS AFB    PTSUNNY   77  72  86 E8        29.97S
QUANTICO       PTSUNNY   80  71  74 W5        29.97F
COLLEGE PARK*  CLOUDY    77  73  88 CALM      29.97S
LEESBURG*      PTSUNNY   81  72  74 CALM      29.98F
MANASSAS*      MOSUNNY   81  73  78 W3        29.97F
GAITHERSBURG*  CLOUDY    73  70  88 CALM      30.01F

$$

MDZ006>007-011-014-222100-
BALTIMORE METRO

CITY           SKY/WX    TMP DP  RH WIND       PRES   REMARKS
BWI AIRPORT    CLOUDY    77  69  76 E6        29.96F
MD SCIENCE CTR   N/A     78  68  71 MISG      29.97F
MARTIN STATE   CLOUDY    79  73  83 CALM      29.99S
ANNAPOLIS        N/A     77  70  79 N6        29.96F
FORT MEADE*    CLOUDY    77  68  73 E3        29.99F

$$

MDZ012-015-019>023-222100-
MARYLAND EASTERN SHORE

CITY           SKY/WX    TMP DP  RH WIND       PRES   REMARKS
OCEAN CITY     CLOUDY    77  70  79 E10       29.95S
SALISBURY      LGT RAIN  77  71  82 E6        29.95S
BAY BRIDGE AP*   N/A     77  70  78 N6        29.96F
CAMBRIDGE*     CLOUDY    77  72  83 SE5       29.94S VSB 1/4
EASTON*        PTSUNNY   82  73  74 N9        29.99F

$$

MDZ017>025-222100-
SOUTHERN MARYLAND

CITY           SKY/WX    TMP DP  RH WIND       PRES   REMARKS
PATUXENT RIVER CLOUDY    81  70  69 NW8       29.95F
ST INIGOES     RAIN      75  70  84 W6        29.94F
LEONARDTOWN*   CLOUDY    77  68  73 W7        29.97F

$$

MDZ003>005-222100-
NORTH CENTRAL MARYLAND

CITY           SKY/WX    TMP DP  RH WIND       PRES   REMARKS
FREDERICK*     CLOUDY    81  72  74 CALM      30.00F
HAGERSTOWN APT CLOUDY    78  67  68 E7        29.98F
WESTMINSTER*   DRIZZLE   75  72  88 E3        29.99F

$$

MDZ501>502-222100-
WESTERN MARYLAND

CITY           SKY/WX    TMP DP  RH WIND       PRES   REMARKS
OAKLAND*       CLOUDY    72  70  94 W5        30.07F
CUMBERLAND*    MOSUNNY   86  68  54 S6        30.00F

$$

VAZ025>031-222100-
SHENANDOAH VALLEY

CITY           SKY/WX    TMP DP  RH WIND       PRES   REMARKS
WINCHESTER*    MOSUNNY   79  68  69 CALM      29.99F
STAUNTON*      CLOUDY    83  68  61 NE9       30.01F

$$

WVZ021-048>050-054>055-222100-
EASTERN WEST VIRGINIA PANHANDLE

CITY           SKY/WX    TMP DP  RH WIND       PRES   REMARKS
MARTINSBURG    MOSUNNY   82  65  56 S5        29.98F
PETERSBURG*    NOT AVBL

$$

VAZ036>039-050-222100-
CENTRAL FOOTHILLS

CITY           SKY/WX    TMP DP  RH WIND       PRES   REMARKS
CHARLOTTESVILL MOSUNNY   80  70  71 MISG      29.98F
ORANGE*        MOSUNNY   79  68  69 N3        29.99F

$$

VAZ055>057-222100-
NORTH AND CENTRAL PIEDMONT

CITY           SKY/WX    TMP DP  RH WIND       PRES   REMARKS
FREDERICKSBRG* MOSUNNY   80  73  77 NW3       29.95F
STAFFORD*      MOSUNNY   78  77  98 W3        30.00F

$$

NCZ024-NYZ072-PAZ021-071-VAZ022-071-222100-
OTHER REGIONAL OBSERVATIONS

CITY           SKY/WX    TMP DP  RH WIND       PRES   REMARKS
NEW YORK CITY  CLOUDY    75  62  64 E6        30.04S
PHILADELPHIA   CLOUDY    76  66  71 E8        30.00S
PITTSBURGH     PTSUNNY   80  68  66 CALM      29.97F
ROANOKE        PTSUNNY   81  69  67 CALM      30.03F
RICHMOND       CLOUDY    83  68  60 NW6       29.96F
RALEIGH        PTSUNNY   88  71  57 N3        29.97F HX  94

$$

ANZ530>537-222100-
MARINE OBSERVATIONS

STATION/POSITION TIME  TEMP    WIND        PRES
                       AIR SEA DIR/SP/G
                 (UTC) (F)     (DEG/KT/KT) (MB)
THOMAS PT LIGHT  2000   76 78   20/ 11/ 12 1014.8F
BALT KEY BRIDGE  2000   77      30/  6/  7 1014.6F
COVE POINT       2000   76     350/ 12/ 13 1014.1S
LEWISETTA        2000   76 80  330/  8/ 11 1013.9F
SOLOMONS ISLAND  2000      80                N/A
PINEY POINT      2000          320/ 13/ 14   N/A

$$




USA.gov is the U.S. government's official web portal to all federal, state and local government web resources and services.